Waarnemingen

Advertentie
Mijn weer
Oviedo, Spanje (8015): temperatuur & dauwpunt: 14.08.2018 19:00:00 - 20.08.2018 19:00:00 (CEST)Oviedo, Spanje (8015): windsnelheid: 14.08.2018 19:00:00 - 20.08.2018 19:00:00 (CEST)Oviedo, Spanje (8015): windrichting: 14.08.2018 19:00:00 - 20.08.2018 19:00:00 (CEST)Oviedo, Spanje (8015): luchtdruk: 14.08.2018 19:00:00 - 20.08.2018 19:00:00 (CEST)Oviedo, Spanje (8015): zicht: 14.08.2018 19:00:00 - 20.08.2018 19:00:00 (CEST)Oviedo, Spanje (8015): neerslag: 14.08.2018 19:00:00 - 20.08.2018 19:00:00 (CEST)
Datum & Tijd tt [°C] td [°C] ff [km/u] ff [kn] dd ppp [hPa] vv [km] rr [mm]
20.08.2018 19:00:00 - - - - - - - -
20.08.2018 18:00:00 23,8 17,8 11 6 ONO 1019,8 15 0,0
20.08.2018 17:00:00 24,7 17,9 9 5 ONO 1020,1 20 -
20.08.2018 16:00:00 24,9 18,1 9 5 ONO 1020,7 19 0,0
20.08.2018 15:00:00 25,2 18,2 9 5 ONO 1020,7 20 0,0
20.08.2018 14:00:00 24,8 17,0 9 5 NO 1021,2 20 -
20.08.2018 13:00:00 24,1 17,1 9 5 O 1021,6 20 0,0
20.08.2018 12:00:00 22,6 16,6 8 4 O 1022,1 20 0,0
20.08.2018 11:00:00 20,9 17,1 5 3 O 1022,5 20 -
20.08.2018 10:00:00 18,6 17,4 4 2 W 1022,8 1,7 0,0
20.08.2018 09:00:00 17,9 17,3 2 1 WNW 1022,9 2,9 0,0
20.08.2018 08:00:00 17,9 17,1 4 2 OZO 1022,8 5 -
20.08.2018 07:00:00 17,9 17,1 4 2 OZO 1022,7 8 0,0
20.08.2018 06:00:00 17,9 17,3 2 1 ONO 1022,7 8 0,0
20.08.2018 05:00:00 17,8 17,0 5 3 ONO 1022,9 8 -
20.08.2018 04:00:00 18,1 17,3 4 2 ZO 1023,0 7 0,0
20.08.2018 03:00:00 18,1 17,1 8 4 O 1023,5 13 0,0
20.08.2018 02:00:00 18,2 17,4 5 3 ONO 1023,9 12 -
20.08.2018 01:00:00 18,0 17,4 4 2 Z 1023,9 9 0,0
20.08.2018 00:00:00 18,3 17,0 2 1 ZO 1023,9 12 0,0
19.08.2018 23:00:00 19,1 17,4 4 2 O 1023,5 15 -
19.08.2018 22:00:00 19,8 17,4 8 4 O 1023,0 18 0,0
19.08.2018 21:00:00 20,9 17,5 8 4 ONO 1022,9 2,5 0,0
19.08.2018 20:00:00 22,1 17,5 9 5 NO 1022,6 20 -
19.08.2018 19:00:00 22,7 17,2 11 6 NO 1022,6 20 0,0
19.08.2018 18:00:00 22,9 17,4 11 6 NO 1022,6 20 0,0
19.08.2018 17:00:00 23,6 17,1 15 8 NO 1022,4 20 -
19.08.2018 16:00:00 24,5 16,0 11 6 NO 1022,1 17 0,0
19.08.2018 15:00:00 24,7 15,3 9 5 NNO 1022,2 18 0,0
19.08.2018 14:00:00 24,0 15,2 9 5 ONO 1022,4 15 -
19.08.2018 13:00:00 22,2 15,8 8 4 O 1023,0 16 0,0
19.08.2018 12:00:00 20,0 14,8 5 3 O 1023,8 15 0,0
19.08.2018 11:00:00 16,7 15,2 2 1 WNW 1024,2 10 -
19.08.2018 10:00:00 14,8 14,8 2 1 Z 1024,4 1,0 0,0
19.08.2018 09:00:00 14,1 14,1 4 2 Z 1024,1 0,2 0,0
19.08.2018 08:00:00 13,6 13,4 5 3 ZZO 1023,8 3,0 -
19.08.2018 07:00:00 13,6 13,6 5 3 ZZO 1023,5 3,9 0,0
19.08.2018 06:00:00 13,8 13,6 5 3 Z 1023,5 2,0 0,0
19.08.2018 05:00:00 14,2 13,9 5 3 Z 1023,5 0,2 -
19.08.2018 04:00:00 14,7 14,4 5 3 Z 1023,5 6 0,0
19.08.2018 03:00:00 14,9 14,3 5 3 Z 1023,8 12 0,0
19.08.2018 02:00:00 15,3 14,2 4 2 ZZO 1023,7 11 -
19.08.2018 01:00:00 16,1 14,5 5 3 O 1023,8 16 0,0
19.08.2018 00:00:00 16,7 14,5 5 3 O 1023,4 17 0,0
18.08.2018 23:00:00 17,4 14,7 8 4 ONO 1023,2 20 -
18.08.2018 22:00:00 17,9 14,8 5 3 O 1022,6 15 0,0
18.08.2018 21:00:00 18,9 14,8 9 5 ONO 1022,1 0,4 0,0
18.08.2018 20:00:00 20,3 14,6 9 5 NO 1021,5 20 -
18.08.2018 19:00:00 21,7 14,8 15 8 NO 1021,5 20 0,0
18.08.2018 18:00:00 22,2 15,1 18 10 NO 1021,4 19 0,0
18.08.2018 17:00:00 22,9 14,5 13 7 NO 1021,5 20 -
18.08.2018 16:00:00 23,5 13,7 9 5 OZO 1022,0 20 0,0
18.08.2018 15:00:00 23,6 14,9 11 6 OZO 1022,3 19 0,0
18.08.2018 14:00:00 22,3 12,5 9 5 O 1022,8 20 -
18.08.2018 13:00:00 21,0 12,9 11 6 O 1023,6 19 0,0
18.08.2018 12:00:00 20,4 14,1 13 7 O 1023,7 19 0,0
18.08.2018 11:00:00 17,9 14,0 5 3 ZO 1024,1 20 -
18.08.2018 10:00:00 14,5 13,2 5 3 ZZO 1024,4 15 0,0
18.08.2018 09:00:00 12,9 12,6 5 3 ZO 1024,6 12 0,0
18.08.2018 08:00:00 12,2 12,0 8 4 ZO 1024,7 20 -
18.08.2018 07:00:00 12,5 12,3 4 2 ZZO 1024,4 6 0,0
18.08.2018 06:00:00 12,9 12,6 5 3 ZZO 1024,5 - 0,0
18.08.2018 05:00:00 13,4 13,1 5 3 ZZO 1024,7 9 -
18.08.2018 04:00:00 13,7 13,4 8 4 ZZO 1024,6 6 0,0
18.08.2018 03:00:00 14,1 13,5 8 4 ZZO 1024,9 9 0,0
18.08.2018 02:00:00 14,6 13,6 8 4 O 1025,4 12 -
18.08.2018 01:00:00 15,6 14,3 8 4 O 1025,4 16 0,0
18.08.2018 00:00:00 16,2 14,2 9 5 O 1025,4 13 0,0
17.08.2018 23:00:00 16,3 14,7 8 4 OZO 1025,4 20 -
17.08.2018 22:00:00 16,3 14,3 8 4 OZO 1024,9 20 0,0
17.08.2018 21:00:00 16,9 15,1 4 2 ZZO 1024,4 19 0,0
17.08.2018 20:00:00 17,5 14,6 9 5 OZO 1024,4 20 -
17.08.2018 19:00:00 17,2 14,3 8 4 O 1024,7 19 0,0
17.08.2018 18:00:00 17,8 14,3 11 6 NO 1024,5 14 0,0
17.08.2018 17:00:00 18,9 13,5 8 4 ONO 1024,5 13 -
17.08.2018 16:00:00 18,7 13,8 8 4 O 1024,8 18 0,0
17.08.2018 15:00:00 17,7 15,5 5 3 N 1025,1 19 0,0
17.08.2018 14:00:00 17,2 15,2 5 3 ONO 1025,3 20 -
17.08.2018 13:00:00 15,2 14,4 11 6 ONO 1025,8 3,1 0,6
17.08.2018 12:00:00 15,8 15,2 8 4 NO 1025,7 9 0,2
17.08.2018 11:00:00 15,5 15,3 5 3 O 1025,2 7 -
17.08.2018 10:00:00 15,3 15,1 8 4 NO 1024,4 1,7 3,0
17.08.2018 09:00:00 15,2 15,2 4 2 WZW 1024,1 0,3 0,8
17.08.2018 08:00:00 15,4 15,4 8 4 NO 1023,7 3,0 -
17.08.2018 07:00:00 15,5 15,5 9 5 NNO 1023,1 3,7 1,0
17.08.2018 06:00:00 15,7 15,7 9 5 NO 1022,6 3,7 3,0
17.08.2018 05:00:00 15,7 15,7 4 2 N 1022,4 1,9 -
17.08.2018 04:00:00 15,7 15,7 8 4 WNW 1022,1 0,1 4,0
17.08.2018 03:00:00 16,3 16,0 4 2 WNW 1021,9 3,8 1,0
17.08.2018 02:00:00 16,5 16,3 8 4 NNW 1022,0 1,6 -
17.08.2018 01:00:00 16,7 16,2 9 5 N 1022,0 2,4 1,0
17.08.2018 00:00:00 17,9 16,4 4 2 ZW 1021,6 19 0,0
16.08.2018 23:00:00 18,1 15,9 4 2 W 1021,3 20 -
16.08.2018 22:00:00 18,4 15,8 4 2 NO 1020,7 18 0,0
16.08.2018 21:00:00 19,0 15,5 5 3 N 1020,2 20 0,0
16.08.2018 20:00:00 19,1 16,0 5 3 N 1020,0 20 -
16.08.2018 19:00:00 19,4 16,1 8 4 W 1019,9 20 0,0
16.08.2018 18:00:00 20,7 17,1 11 6 N 1019,2 11 0,0
16.08.2018 17:00:00 21,1 16,5 16 9 NNO 1019,0 20 -
16.08.2018 16:00:00 21,7 17,1 11 6 N 1018,9 17 0,0
16.08.2018 15:00:00 22,0 18,0 16 9 NO 1018,8 18 0,0
16.08.2018 14:00:00 22,8 17,7 11 6 NO 1018,2 20 -
16.08.2018 13:00:00 21,9 17,7 9 5 NNO 1018,4 12 0,0
16.08.2018 12:00:00 21,5 17,3 2 1 W 1018,6 12 0,0
16.08.2018 11:00:00 19,6 18,1 4 2 W 1018,7 15 -
16.08.2018 10:00:00 18,8 18,1 2 1 WNW 1018,7 0,9 0,0
16.08.2018 09:00:00 17,9 17,9 4 2 NNW 1018,4 4,1 0,0
16.08.2018 08:00:00 17,6 17,6 5 3 WNW 1018,1 1,0 -
16.08.2018 07:00:00 17,6 17,6 5 3 WNW 1017,6 0,2 0,0
16.08.2018 06:00:00 17,7 17,7 4 2 NW 1017,4 0,8 0,2
16.08.2018 05:00:00 17,7 17,7 4 2 WNW 1017,5 1,5 -
16.08.2018 04:00:00 17,8 17,8 5 3 W 1017,8 0,4 0,0
16.08.2018 03:00:00 18,0 17,7 4 2 WNW 1018,0 1,9 0,0
16.08.2018 02:00:00 18,8 17,6 2 1 ZZW 1018,1 16 -
16.08.2018 01:00:00 18,9 17,4 4 2 WNW 1017,8 16 0,0
16.08.2018 00:00:00 19,0 17,3 2 1 NW 1017,6 19 0,0
15.08.2018 23:00:00 19,4 17,5 2 1 NNW 1017,5 15 -
15.08.2018 22:00:00 19,8 17,2 2 1 W 1017,2 20 0,0
15.08.2018 21:00:00 20,6 17,2 5 3 ONO 1016,7 20 0,0
15.08.2018 20:00:00 21,7 17,5 5 3 ONO 1016,7 20 -
15.08.2018 19:00:00 23,7 17,4 9 5 NNO 1016,5 20 0,0
15.08.2018 18:00:00 24,8 17,8 9 5 NO 1016,4 20 0,0
15.08.2018 17:00:00 24,6 16,8 13 7 NO 1016,7 20 -
15.08.2018 16:00:00 25,5 16,6 9 5 NO 1016,9 20 0,0
15.08.2018 15:00:00 25,1 16,0 8 4 NNO 1017,4 20 0,0
15.08.2018 14:00:00 25,0 15,9 9 5 O 1017,8 20 -
15.08.2018 13:00:00 24,2 15,7 11 6 O 1018,3 20 0,0
15.08.2018 12:00:00 22,3 14,9 8 4 O 1018,8 20 0,0
15.08.2018 11:00:00 20,6 15,6 5 3 ONO 1019,1 20 -
15.08.2018 10:00:00 18,0 15,1 4 2 ONO 1019,8 20 0,0
15.08.2018 09:00:00 16,4 14,6 5 3 O 1020,1 20 0,0
15.08.2018 08:00:00 16,3 14,8 5 3 O 1020,1 20 -
15.08.2018 07:00:00 15,7 14,2 9 5 O 1020,4 20 0,0
15.08.2018 06:00:00 16,8 14,8 5 3 O 1020,7 20 0,0
15.08.2018 05:00:00 17,2 15,2 5 3 O 1020,9 20 -
15.08.2018 04:00:00 17,1 15,1 8 4 O 1021,5 20 0,0
15.08.2018 03:00:00 17,5 15,1 5 3 O 1021,9 20 0,0
15.08.2018 02:00:00 18,0 15,4 8 4 O 1022,3 20 -
15.08.2018 01:00:00 18,2 15,6 8 4 O 1022,2 20 0,0
15.08.2018 00:00:00 18,2 15,6 5 3 O 1022,4 20 0,0
14.08.2018 23:00:00 18,7 15,9 8 4 O 1022,6 15 -
14.08.2018 22:00:00 18,8 15,8 11 6 ONO 1022,0 20 0,0
14.08.2018 21:00:00 19,5 15,8 15 8 NO 1021,6 20 0,0
14.08.2018 20:00:00 20,5 15,9 15 8 NO 1021,2 20 -
14.08.2018 19:00:00 22,2 16,5 15 8 NO 1021,0 20 0,0

tt = temperatuur
td = dauwpunt
ff = windsnelheid
dd = windrichting
ppp = luchtdruk
vv = zicht
rr = neerslag

Weerstations in de omgeving